Location: Gamarra
(10.0780°N, 67.4929°W)
Time: 08:48:23
(UTC+00:00)

Cosmos 2242 Rocket - Pass Details

Date: 13 April 2024
Orbit: 616 x 648 km, 82.5° (Epoch: 22 May)

Event Time Altitude Azimuth Distance (km) Brightness Sun altitude
Rises 22:54:21 0° 1° (N) 2,885 7.1 -4.2°
Reaches altitude 10° 22:56:35 10° 5° (N) 1,984 6.2 -4.7°
Maximum altitude 23:00:56 61° 86° (E) 708 3.6 -5.8°
Drops below altitude 10° 23:05:19 10° 166° (SSE) 2,004 5.9 -6.8°
Sets 23:07:34 0° 170° (S) 2,917 6.8 -7.4°
